Shreveport

United States     32˚28′04″N   93˚46′47″W
temp.,
°C
wind,
m/s
gust,
m/s
humid.,
%
clouds,
%
prec.,
mm/h
press.,
hPa
HPBL,
m
27 november, fri
fri2700:00+18˚sse376692 0.0 1016340
03:00+18˚sse2574100 0.0 1016253
06:00+17˚s1183100 0.1 101777
09:00+18˚n1283100 1.4 1017211
12:00+20˚e2378100 2.4 1017383
15:00+20˚nnw1278100 0.8 1016433
18:00+19˚nne4878100 0.8 1017523
21:00+17˚ne4974100 0.0 1019513
28 november, sat
sat2800:00+16˚ne4969100 0.0 1019601
03:00+14˚ne41072100 0.0 1020610
06:00+12˚ne4974100 0.0 1021528
09:00+12˚ne4773100 0.0 1022494
12:00+16˚ne3556100 0.0 1021571
15:00+17˚ene3555100 0.0 1018773
18:00+16˚ene4761100 0.0 1018648
21:00+15˚e3865100 0.0 1018594
29 november, sun
sun2900:00+15˚ese2574100 0.1 1016478
03:00+14˚ne2381100 0.8 1015264
06:00+13˚ne2390100 6.3 1014240
09:00+13˚nw238495 1.8 1015337
12:00+14˚wnw587497 1.9 1015928
15:00+13˚nw6974100 0.2 1016917
18:00+12˚nnw61070100 0.2 10181051
21:00+11˚nnw61169100 0.0 10201071
30 november, mon
mon3000:00+10˚nw487170 0.0 1022568
03:00+8˚nnw7137223 0.0 1023838
06:00+5˚nnw6126014 0.0 1026808
09:00+5˚nnw610460 0.0 1028755
12:00+8˚nnw48330 0.0 1027822
15:00+10˚nw47280 0.0 10251029
18:00+8˚nw48350 0.0 1025813
21:00+7˚nw49400 0.0 1026487
1 december, tue
tue100:00+6˚nw25410 0.0 1026266
03:00+5˚wnw12420 0.0 1025186
06:00+4˚sw12420 0.0 1025161
09:00+7˚ssw23340 0.0 1025314
12:00+12˚ssw24230 0.0 1023670
15:00+13˚s35260 0.0 1020838
18:00+11˚s27350 0.0 1020607
21:00+9˚s4104313 0.0 1020567